EW4650 Weather Reports


time (UTC)temp
C
wind
direction
speed
KPH
gust
KPH
rain 1hr
cm
rain 24hr
cm
rain mn
cm
humidity
%
barometer
mb
20260510095009 19 192 4.8 12.9 0.00 0.00 0.00 94 1008.8
20260510094518 19 204 6.4 12.9 0.00 0.00 0.00 94 1008.8
20260510094006 19 184 6.4 12.9 0.00 0.00 0.00 94 1008.8
20260510093506 19 173 6.4 11.3 0.00 0.00 0.00 94 1008.8
20260510093009 19 195 4.8 12.9 0.00 0.00 0.00 93 1008.7
20260510092505 19 191 6.4 11.3 0.00 0.00 0.00 93 1008.7
20260510092006 19 191 6.4 11.3 0.00 0.00 0.00 93 1008.8
20260510091507 20 186 4.8 9.7 0.00 0.00 0.00 93 1008.8
20260510091004 20 195 4.8 9.7 0.00 0.00 0.00 92 1008.8
20260510090503 20 195 4.8 9.7 0.00 0.00 0.00 92 1008.8
20260510090004 20 188 4.8 11.3 0.00 0.00 0.00 92 1008.8
20260510085502 20 191 4.8 11.3 0.00 0.00 0.00 92 1008.7
20260510085004 20 209 6.4 11.3 0.00 0.00 0.00 92 1008.7
20260510084504 20 215 6.4 11.3 0.00 0.00 0.00 91 1008.6
20260510084001 20 190 8.0 11.3 0.00 0.00 0.00 91 1008.7
20260510083501 20 171 6.4 11.3 0.00 0.00 0.00 91 1008.6
20260510083107 20 175 8.0 12.9 0.00 0.00 0.00 91 1008.7
20260510082600 20 195 8.0 12.9 0.00 0.00 0.00 90 1008.6
20260510082059 20 186 8.0 12.9 0.00 0.00 0.00 90 1008.7
20260510081558 20 209 8.0 14.5 0.00 0.00 0.00 90 1008.7
20260510081057 20 195 8.0 16.1 0.00 0.00 0.00 89 1008.7
20260510080556 20 188 8.0 16.1 0.00 0.00 0.00 89 1008.7
20260510075555 20 180 8.0 12.9 0.00 0.00 0.00 88 1008.7
20260510075057 20 181 6.4 12.9 0.00 0.00 0.00 88 1008.7
20260510074554 20 173 6.4 12.9 0.00 0.00 0.00 87 1008.6
20260510074052 21 198 8.0 14.5 0.00 0.00 0.00 87 1008.5
20260510073551 21 176 6.4 14.5 0.00 0.00 0.00 86 1008.6
20260510073056 21 199 6.4 17.7 0.00 0.00 0.00 86 1008.5
20260510072550 21 173 8.0 17.7 0.00 0.00 0.00 86 1008.6
20260510072049 21 188 11.3 17.7 0.00 0.00 0.00 86 1008.6
20260510071550 21 181 9.7 16.1 0.00 0.00 0.00 86 1008.7
20260510071048 21 200 11.3 16.1 0.00 0.00 0.00 85 1008.6
20260510070548 21 183 11.3 14.5 0.00 0.00 0.00 85 1008.7
20260510070047 21 184 8.0 16.1 0.00 0.00 0.00 84 1008.8
20260510065549 21 185 9.7 22.5 0.00 0.00 0.00 84 1008.9
20260510065044 21 201 9.7 22.5 0.00 0.00 0.00 84 1009.0
20260510064546 21 202 9.7 19.3 0.00 0.00 0.00 83 1009.0
20260510064042 21 197 9.7 17.7 0.00 0.00 0.00 82 1009.0
20260510063542 22 205 9.7 16.1 0.00 0.00 0.00 82 1009.0
20260510063041 22 207 8.0 20.9 0.00 0.00 0.00 82 1009.0
20260510062542 22 176 11.3 20.9 0.00 0.00 0.00 81 1008.9
20260510062038 22 194 9.7 17.7 0.00 0.00 0.00 81 1008.9
20260510061537 22 198 12.9 20.9 0.00 0.00 0.00 81 1009.1
20260510061036 22 195 12.9 20.9 0.00 0.00 0.00 81 1009.0
20260510060536 22 174 11.3 17.7 0.00 0.00 0.00 80 1009.0
20260510060041 22 195 9.7 16.1 0.00 0.00 0.00 80 1009.0
20260510055532 22 213 6.4 14.5 0.00 0.00 0.00 79 1009.0
20260510055032 22 195 6.4 12.9 0.00 0.00 0.00 79 1008.9
20260510054538 22 192 8.0 19.3 0.00 0.00 0.00 79 1008.9
20260510054033 22 180 9.7 19.3 0.00 0.00 0.00 79 1008.9
20260510053530 22 152 12.9 22.5 0.00 0.00 0.00 79 1008.9
20260510053030 22 171 12.9 22.5 0.00 0.00 0.00 79 1008.8
20260510052529 23 148 8.0 12.9 0.00 0.00 0.00 79 1008.8
20260510052029 23 138 6.4 14.5 0.00 0.00 0.00 78 1008.8
20260510051529 23 135 8.0 17.7 0.00 0.00 0.00 78 1008.8
20260510051028 23 166 11.3 17.7 0.00 0.00 0.00 79 1008.7
20260510050526 22 149 8.0 17.7 0.00 0.00 0.00 79 1008.7
20260510050031 22 164 11.3 17.7 0.00 0.00 0.00 79 1008.6
20260510045528 22 192 9.7 16.1 0.00 0.00 0.00 79 1008.6
20260510045026 22 159 9.7 17.7 0.00 0.00 0.00 80 1008.7
20260510044526 22 159 9.7 17.7 0.00 0.00 0.00 80 1008.7
20260510044025 22 164 8.0 14.5 0.00 0.00 0.00 81 1008.6
20260510043625 22 180 8.0 12.9 0.00 0.00 0.00 81 1008.7
20260510043027 22 180 6.4 9.7 0.00 0.00 0.00 80 1008.7
20260510042524 22 186 6.4 9.7 0.00 0.00 0.00 80 1008.6
20260510042024 22 186 6.4 11.3 0.00 0.00 0.00 80 1008.5
20260510041524 22 172 8.0 11.3 0.00 0.00 0.00 80 1008.5
20260510041024 22 177 6.4 11.3 0.00 0.00 0.00 79 1008.5
20260510040524 22 187 6.4 9.7 0.00 0.00 0.00 79 1008.4
20260510040026 22 185 6.4 9.7 0.00 0.00 0.00 79 1008.4
20260510035523 23 188 6.4 12.9 0.00 0.00 0.00 78 1008.4
20260510035023 23 173 8.0 12.9 0.00 0.00 0.00 78 1008.3
20260510034524 23 193 8.0 12.9 0.00 0.00 0.00 77 1008.3
20260510034022 23 192 6.4 9.7 0.00 0.00 0.00 77 1008.3
20260510033524 23 189 4.8 9.7 0.00 0.00 0.00 77 1008.2
20260510033022 23 196 6.4 9.7 0.00 0.00 0.00 76 1008.2
20260510032523 23 185 6.4 9.7 0.00 0.00 0.00 75 1008.2
20260510032024 23 200 6.4 11.3 0.00 0.00 0.00 74 1008.1
20260510031522 23 181 6.4 11.3 0.00 0.00 0.00 74 1008.1
20260510031021 24 181 6.4 11.3 0.00 0.00 0.00 73 1008.1
20260510030522 24 176 4.8 11.3 0.00 0.00 0.00 72 1008.0
20260510030024 24 192 4.8 11.3 0.00 0.00 0.00 72 1008.0
20260510025522 25 193 6.4 14.5 0.00 0.00 0.00 71 1008.0
20260510025022 25 169 8.0 14.5 0.00 0.00 0.00 71 1008.0
20260510024622 25 140 8.0 14.5 0.00 0.00 0.00 71 1007.9
20260510024020 25 172 9.7 14.5 0.00 0.00 0.00 70 1007.8
20260510023520 25 168 9.7 14.5 0.00 0.00 0.00 70 1007.7
20260510023020 25 176 8.0 12.9 0.00 0.00 0.00 69 1007.6
20260510022521 25 163 8.0 11.3 0.00 0.00 0.00 69 1007.6
20260510022020 25 176 6.4 11.3 0.00 0.00 0.00 68 1007.4
20260510021520 25 175 6.4 9.7 0.00 0.00 0.00 68 1007.5
20260510021019 25 182 6.4 9.7 0.00 0.00 0.00 68 1007.2
20260510020522 25 196 4.8 8.0 0.00 0.00 0.00 68 1007.1
20260510020019 25 198 4.8 9.7 0.00 0.00 0.00 68 1007.1
20260510015518 25 194 6.4 9.7 0.00 0.00 0.00 68 1007.1
20260510015018 25 190 4.8 9.7 0.00 0.00 0.00 67 1006.9
20260510014520 26 181 4.8 8.0 0.00 0.00 0.00 66 1007.0
20260510014018 26 194 4.8 8.0 0.00 0.00 0.00 66 1006.9
20260510013518 26 185 4.8 9.7 0.00 0.00 0.00 65 1006.7
20260510013017 26 184 6.4 11.3 0.00 0.00 0.00 65 1006.6
20260510012517 27 195 6.4 11.3 0.00 0.00 0.00 63 1006.6
20260510012017 27 191 6.4 11.3 0.00 0.00 0.00 63 1006.5
20260510011517 27 171 4.8 11.3 0.00 0.00 0.00 62 1006.6
20260510011016 27 181 6.4 11.3 0.00 0.00 0.00 61 1006.4
20260510010517 28 190 6.4 9.7 0.00 0.00 0.00 60 1006.4
20260510010017 28 184 4.8 9.7 0.00 0.00 0.00 59 1006.4
20260510005517 28 184 1.6 14.5 0.00 0.00 0.00 59 1006.3
20260510005016 28 187 6.4 12.9 0.00 0.00 0.00 58 1006.3
20260510004516 29 193 6.4 12.9 0.00 0.00 0.00 57 1006.2
20260510004015 29 198 8.0 14.5 0.00 0.00 0.00 56 1006.2
20260510003515 30 211 3.2 9.7 0.00 0.00 0.00 56 1006.3
20260510003023 30 192 4.8 8.0 0.00 0.00 0.00 54 1006.3
20260510002514 30 205 1.6 9.7 0.00 0.00 0.00 53 1006.2
20260510002015 30 210 4.8 9.7 0.00 0.00 0.00 53 1006.2
20260510001516 30 195 4.8 9.7 0.00 0.00 0.00 53 1006.2
20260510001014 31 206 6.4 9.7 0.00 0.00 0.00 52 1006.2
20260510000514 31 232 4.8 9.7 0.00 0.00 0.00 52 1006.1
20260510000014 31 182 3.2 11.3 0.00 0.00 0.00 53 1006.1
20260509235513 31 136 3.2 12.9 0.00 0.00 0.00 52 1006.1
20260509235013 31 165 6.4 14.5 0.00 0.00 0.00 51 1006.2
20260509234524 31 186 6.4 14.5 0.00 0.00 0.00 53 1006.1
20260509234013 31 148 4.8 11.3 0.00 0.00 0.00 52 1006.1
20260509233512 31 210 3.2 9.7 0.00 0.00 0.00 51 1006.1
20260509233012 31 199 3.2 8.0 0.00 0.00 0.00 52 1006.0
20260509232512 31 222 0.0 3.2 0.00 0.00 0.00 49 1006.0
20260509232014 31 325 0.0 8.0 0.00 0.00 0.00 50 1006.0
20260509231514 30 9 1.6 16.1 0.00 0.00 0.00 49 1006.1
20260509231012 30 9 3.2 16.1 0.00 0.00 0.00 50 1006.1
20260509230511 31 331 3.2 12.9 0.00 0.00 0.00 47 1006.2
20260509230011 31 265 6.4 14.5 0.00 0.00 0.00 49 1006.2
20260509225511 31 246 8.0 17.7 0.00 0.00 0.00 49 1006.1
20260509225010 31 248 4.8 16.1 0.00 0.00 0.00 50 1006.1
20260509224510 31 227 8.0 16.1 0.00 0.00 0.00 50 1006.1
20260509224009 31 296 6.4 12.9 0.00 0.00 0.00 50 1006.1
20260509223510 31 213 8.0 11.3 0.00 0.00 0.00 49 1006.1
20260509223009 31 175 8.0 16.1 0.00 0.00 0.00 51 1006.1
20260509222508 31 240 3.2 16.1 0.00 0.00 0.00 50 1006.1
20260509222008 31 209 11.3 16.1 0.00 0.00 0.00 51 1006.1
20260509221508 31 202 8.0 11.3 0.00 0.00 0.00 50 1006.1
20260509221007 31 163 3.2 16.1 0.00 0.00 0.00 53 1006.2
20260509220508 31 159 6.4 16.1 0.00 0.00 0.00 53 1006.3
20260509220018 31 232 6.4 12.9 0.00 0.00 0.00 54 1006.2
20260509215506 31 248 4.8 11.3 0.00 0.00 0.00 54 1006.3
20260509215005 31 157 3.2 12.9 0.00 0.00 0.00 53 1006.3
20260509214504 31 163 4.8 8.0 0.00 0.00 0.00 56 1006.4
20260509214004 30 175 3.2 19.3 0.00 0.00 0.00 56 1006.5
20260509213501 30 177 9.7 19.3 0.00 0.00 0.00 54 1006.5
20260509213141 31 121 8.0 19.3 0.00 0.00 0.00 54 1006.5
20260509212601 31 177 11.3 19.3 0.00 0.00 0.00 55 1006.7
20260509212101 31 175 12.9 19.3 0.00 0.00 0.00 55 1006.7
20260509211558 31 180 8.0 16.1 0.00 0.00 0.00 55 1006.8
20260509211057 31 227 6.4 12.9 0.00 0.00 0.00 54 1006.8
20260509210557 31 229 3.2 11.3 0.00 0.00 0.00 55 1006.9
20260509210105 30 207 4.8 14.5 0.00 0.00 0.00 56 1007.1
20260509205556 30 213 8.0 14.5 0.00 0.00 0.00 56 1007.1
20260509205053 30 165 6.4 12.9 0.00 0.00 0.00 58 1007.2
20260509204555 30 198 8.0 14.5 0.00 0.00 0.00 58 1007.3
20260509204052 29 210 9.7 14.5 0.00 0.00 0.00 59 1007.4
20260509203551 30 244 0.0 14.5 0.00 0.00 0.00 56 1007.5
20260509203050 30 265 6.4 9.7 0.00 0.00 0.00 56 1007.5
20260509202549 30 222 1.6 17.7 0.00 0.00 0.00 55 1007.7
20260509202049 30 225 12.9 17.7 0.00 0.00 0.00 58 1007.7
20260509201548 30 200 3.2 12.9 0.00 0.00 0.00 58 1007.7
20260509201047 29 209 6.4 12.9 0.00 0.00 0.00 59 1007.9
20260509200546 29 127 1.6 17.7 0.00 0.00 0.00 59 1007.9
20260509200046 28 225 11.3 17.7 0.00 0.00 0.00 61 1008.1
20260509195546 28 231 8.0 24.1 0.00 0.00 0.00 61 1008.1
20260509195048 29 229 16.1 24.1 0.00 0.00 0.00 59 1008.1
20260509194544 30 249 6.4 22.5 0.00 0.00 0.00 58 1008.3
20260509194044 30 242 9.7 22.5 0.00 0.00 0.00 60 1008.3
20260509193543 29 142 9.7 19.3 0.00 0.00 0.00 59 1008.3
20260509193044 29 204 8.0 22.5 0.00 0.00 0.00 60 1008.4
20260509192544 28 173 12.9 22.5 0.00 0.00 0.00 62 1008.4
20260509192040 28 300 6.4 19.3 0.00 0.00 0.00 62 1008.4
20260509191542 28 239 12.9 19.3 0.00 0.00 0.00 64 1008.5
20260509191043 28 173 6.4 17.7 0.00 0.00 0.00 63 1008.5
20260509190539 28 235 8.0 17.7 0.00 0.00 0.00 64 1008.6
20260509190040 28 245 12.9 20.9 0.00 0.00 0.00 65 1008.7
20260509185537 28 246 14.5 20.9 0.00 0.00 0.00 67 1008.8
20260509185037 28 200 1.6 19.3 0.00 0.00 0.00 67 1008.8
20260509184549 28 227 9.7 20.9 0.00 0.00 0.00 66 1008.9
20260509184036 28 215 8.0 25.7 0.00 0.00 0.00 67 1009.0
20260509183536 28 221 12.9 25.7 0.00 0.00 0.00 68 1009.1
20260509183035 28 189 8.0 16.1 0.00 0.00 0.00 69 1009.1
20260509182535 28 200 4.8 17.7 0.00 0.00 0.00 70 1009.2
20260509182034 28 211 11.3 17.7 0.00 0.00 0.00 69 1009.3
20260509181544 28 231 11.3 20.9 0.00 0.00 0.00 69 1009.4
20260509181033 28 221 17.7 22.5 0.00 0.00 0.00 69 1009.5
20260509180533 28 184 8.0 17.7 0.00 0.00 0.00 68 1009.5
20260509180032 27 172 8.0 17.7 0.00 0.00 0.00 73 1009.6
20260509175534 27 223 9.7 20.9 0.00 0.00 0.00 71 1009.7
20260509175029 27 148 3.2 22.5 0.00 0.00 0.00 71 1009.7
20260509174528 27 201 9.7 19.3 0.00 0.00 0.00 74 1009.7
20260509174026 27 191 9.7 19.3 0.00 0.00 0.00 75 1009.8
20260509173525 26 214 4.8 17.7 0.00 0.00 0.00 76 1009.8
20260509173023 26 182 6.4 17.7 0.00 0.00 0.00 77 1009.8
20260509172523 26 213 11.3 19.3 0.00 0.00 0.00 78 1009.9
20260509172023 26 236 14.5 22.5 0.00 0.00 0.00 77 1009.9
20260509171521 26 265 9.7 22.5 0.00 0.00 0.00 79 1009.9
20260509171020 25 211 9.7 22.5 0.00 0.00 0.00 79 1010.0
20260509170519 25 222 8.0 17.7 0.00 0.00 0.00 81 1009.9
20260509170019 25 229 8.0 24.1 0.00 0.00 0.00 83 1009.9
20260509165519 25 229 14.5 24.1 0.00 0.00 0.00 81 1009.8
20260509165020 25 182 12.9 27.4 0.00 0.00 0.00 82 1009.8
20260509164529 25 226 12.9 25.7 0.00 0.00 0.00 83 1009.8
20260509164018 25 184 14.5 24.1 0.00 0.00 0.00 84 1009.7
20260509163513 25 221 11.3 22.5 0.00 0.00 0.00 84 1009.9
20260509163016 25 199 12.9 22.5 0.00 0.00 0.00 88 1009.9
20260509162511 23 205 14.5 19.3 0.00 0.00 0.00 90 1010.0
20260509162015 23 200 9.7 16.1 0.00 0.00 0.00 90 1010.0
20260509161509 23 225 9.7 17.7 0.00 0.00 0.00 90 1010.0
20260509161008 23 209 9.7 20.9 0.00 0.00 0.00 93 1009.9
20260509160506 22 222 12.9 20.9 0.00 0.00 0.00 94 1009.9
20260509160006 22 214 9.7 16.1 0.00 0.00 0.00 96 1010.0
20260509155505 22 240 9.7 16.1 0.00 0.00 0.00 97 1010.1
20260509155004 22 192 8.0 17.7 0.00 0.00 0.00 99 1010.1
20260509154506 22 163 8.0 17.7 0.00 0.00 0.00 100 1010.1
20260509154003 22 197 6.4 12.9 0.00 0.00 0.00 100 1010.1
20260509153502 22 178 6.4 11.3 0.00 0.00 0.00 100 1010.1
20260509153106 21 220 6.4 12.9 0.00 0.00 0.00 100 1010.1
20260509152602 21 195 8.0 16.1 0.00 0.00 0.00 100 1010.2
20260509152058 21 188 8.0 14.5 0.00 0.00 0.00 100 1010.2
20260509151557 21 182 6.4 16.1 0.00 0.00 0.00 100 1010.2
20260509151055 21 194 9.7 16.1 0.00 0.00 0.00 100 1010.2
20260509150556 20 191 4.8 9.7 0.00 0.00 0.00 100 1010.2
20260509150055 20 232 1.6 3.2 0.00 0.00 0.00 100 1010.3
20260509145555 20 165 0.0 6.4 0.00 0.00 0.00 100 1010.2
20260509145056 20 245 3.2 6.4 0.00 0.00 0.00 100 1010.2
20260509144559 20 190 3.2 4.8 0.00 0.00 0.00 100 1010.2
20260509144053 20 92 1.6 3.2 0.00 0.00 0.00 100 1010.2
20260509143553 20 46 0.0 4.8 0.00 0.00 0.00 100 1010.3
20260509143055 20 18 1.6 6.4 0.00 0.00 0.00 100 1010.3
20260509142551 20 350 1.6 8.0 0.00 0.00 0.00 100 1010.3
20260509142051 20 9 4.8 8.0 0.00 0.00 0.00 100 1010.5
20260509141551 20 17 3.2 4.8 0.00 0.00 0.00 100 1010.5
20260509141054 20 73 1.6 8.0 0.00 0.00 0.00 100 1010.4
20260509140550 20 73 1.6 8.0 0.00 0.00 0.00 100 1010.2
20260509135550 20 76 1.6 8.0 0.00 0.03 0.00 100 1010.1
20260509135050 20 53 3.2 12.9 0.00 0.03 0.00 100 1010.1
20260509134549 20 74 8.0 12.9 0.00 0.03 0.00 100 1010.3
20260509134049 20 49 3.2 6.4 0.00 0.03 0.00 100 1010.2
20260509133547 20 95 1.6 9.7 0.00 0.03 0.00 100 1010.1
20260509133047 20 74 1.6 11.3 0.00 0.03 0.00 100 1010.2
20260509132547 20 65 6.4 14.5 0.00 0.03 0.00 100 1010.2
20260509132045 20 51 8.0 14.5 0.00 0.03 0.00 100 1010.3
20260509131546 20 55 6.4 11.3 0.00 0.03 0.00 100 1010.2
20260509131045 20 54 6.4 11.3 0.00 0.03 0.00 100 1010.1
20260509130545 20 59 4.8 8.0 0.00 0.03 0.00 100 1010.2
20260509130045 20 72 3.2 12.9 0.00 0.03 0.00 100 1010.4
20260509125544 20 80 6.4 11.3 0.00 0.03 0.00 100 1010.3
20260509125044 20 81 6.4 14.5 0.00 0.03 0.00 100 1010.2
20260509124541 19 59 6.4 19.3 0.00 0.03 0.00 100 1010.1
20260509124039 19 64 9.7 20.9 0.00 0.03 0.00 100 1010.1
20260509123541 19 46 14.5 19.3 0.00 0.03 0.00 100 1010.2
20260509123038 19 60 12.9 19.3 0.00 0.03 0.00 100 1010.2
20260509122538 19 48 12.9 17.7 0.00 0.03 0.00 100 1010.2
20260509122037 19 41 12.9 19.3 0.00 0.03 0.00 100 1010.3
20260509121540 19 57 11.3 19.3 0.00 0.03 0.00 100 1010.1
20260509121036 19 60 8.0 22.5 0.00 0.03 0.00 100 1010.1
20260509120536 20 33 16.1 22.5 0.00 0.03 0.00 100 1010.1
20260509120136 20 56 12.9 19.3 0.00 0.03 0.00 100 1010.1
20260509115535 20 43 12.9 17.7 0.00 0.03 0.00 100 1010.1
20260509115034 20 44 8.0 20.9 0.00 0.03 0.00 100 1010.1
20260509114534 20 30 14.5 20.9 0.00 0.03 0.00 100 1010.0
20260509114032 20 52 12.9 17.7 0.00 0.03 0.00 100 1009.9
20260509113531 20 24 9.7 14.5 0.00 0.03 0.00 100 1009.9
20260509113031 20 38 8.0 14.5 0.00 0.03 0.00 100 1009.6
20260509112530 20 32 6.4 9.7 0.00 0.03 0.00 100 1009.4
20260509112031 20 65 4.8 8.0 0.00 0.03 0.00 100 1009.3
20260509111531 19 85 4.8 9.7 0.00 0.03 0.00 100 1009.2
20260509111030 20 78 6.4 11.3 0.00 0.03 0.00 100 1009.2
20260509110531 20 75 8.0 14.5 0.00 0.03 0.00 100 1009.1
20260509110030 20 82 9.7 14.5 0.00 0.03 0.00 100 1009.0
20260509105531 20 67 6.4 9.7 0.00 0.03 0.00 100 1008.9
20260509105030 20 76 6.4 11.3 0.00 0.03 0.00 100 1008.9
20260509104533 20 73 6.4 11.3 0.00 0.03 0.00 100 1008.9
20260509104028 20 90 3.2 6.4 0.00 0.03 0.00 100 1008.9
20260509103528 20 102 3.2 9.7 0.00 0.03 0.00 100 1008.9
20260509103029 19 119 4.8 11.3 0.00 0.03 0.00 100 1008.9
20260509102528 19 116 3.2 9.7 0.00 0.03 0.00 100 1008.9
20260509102028 19 113 3.2 9.7 0.00 0.03 0.00 100 1008.9
20260509101537 19 105 3.2 8.0 0.00 0.03 0.00 100 1008.9
20260509101031 19 100 6.4 9.7 0.00 0.03 0.00 100 1008.7
20260509100527 19 82 4.8 12.9 0.00 0.03 0.00 100 1008.8
20260509100027 19 82 6.4 11.3 0.00 0.03 0.00 99 1008.6
20260509095528 19 64 8.0 11.3 0.00 0.03 0.00 99 1008.5